Hourly Data Report for June 30, 2015

All times are specified in Local Standard Time (LST). Add 1 hour to adjust for Daylight Saving Time where and when it is observed.

KELOWNA UBCO
BRITISH COLUMBIA

49°56'26.700" N
119°24'00.760" W
456.00 m
1123996
71644
VKU

Download Data

Hourly Data (June 2015)
Hourly Data Report for June 30, 2015
TIME Temp Definition
°C
Dew Point Definition
°C
Rel Hum Definition
%
Wind Dir Definition
10's deg

Wind Spd Definition
km/h
Visibility Definition
km
Stn Press Definition
kPa
Hmdx Definition


Wind Chill Definition


Weather Definition


00:00 17.4 14.1 81       96.42     LegendNANA
01:00 16.5 13.9 85       96.44     LegendNANA
02:00 16.1 13.7 86       96.47     LegendNANA
03:00 16.4 14.0 86       96.50     LegendNANA
04:00 15.8 13.5 86       96.54     LegendNANA
05:00 16.1 13.1 82       96.57     LegendNANA
06:00 18.2 13.4 73       96.61     LegendNANA
07:00 19.9 13.8 68       96.58     LegendNANA
08:00 22.0 14.0 61       96.54 25   LegendNANA
09:00 24.3 14.2 53       96.53 28   LegendNANA
10:00 26.2 14.7 49       96.48 30   LegendNANA
11:00 28.5 13.5 40       96.45 32   LegendNANA
12:00 29.0 11.9 35       96.40 31   LegendNANA
13:00 29.9 12.0 33       96.32 32   LegendNANA
14:00 28.6 11.5 35       96.28 31   LegendNANA
15:00 30.7 10.2 28       96.16 32   LegendNANA
16:00 32.1 9.8 25       96.05 33   LegendNANA
17:00 32.7 9.8 25       95.97 34   LegendNANA
18:00 32.2 11.4 28       95.95 34   LegendNANA
19:00 30.3 11.3 31       96.00 32   LegendNANA
20:00 26.2 11.5 40       96.12 28   LegendNANA
21:00 23.7 13.8 54       96.29 27   LegendNANA
22:00 22.8 12.6 52       96.37 25   LegendNANA
23:00 21.7 12.1 54       96.43     LegendNANA

Notes on Data Quality.

Legend

  • E = Estimated
  • M = Missing
  • NA = Not Available
Date modified: